Location: Newark
(45.5000°N, 11.4167°E)
Time: 15:20:59
(UTC+00:00)

A-11 Canister half - Pass Details

Date: 19 August 2019
Orbit: 1514 x 1686 km, 47.2° (Epoch: 23 October)

Event Time Altitude Azimuth Distance (km) Brightness Sun altitude
Rises 17:06:48 0° 213° (SSW) 4,667 11.9 11.0°
Reaches altitude 10° 17:09:59 10° 207° (SSW) 3,702 11.3 10.4°
Maximum altitude 17:18:38 44° 140° (SE) 2,073 9.5 8.9°
Drops below altitude 10° 17:27:34 10° 73° (ENE) 3,834 10.6 7.4°
Sets 17:30:55 0° 67° (ENE) 4,847 11.1 6.8°
